User: anonymous   Login
Location: Frizzleburg
(41.0764°N, 80.4548°W)
Time: 14:53:18
(UTC+00:00)
Language:

COSMO-SKYMED 1 - Orbit

View from above orbital plane
View from above orbital plane
View from above satellite
View from above satellite

Ground track
Ground track

The orbit data is extracted from the following two-line orbital elements,

1 31598U 07023A   20022.50743644 -.00000165  00000-0 -14120-4 0  9993
2 31598  97.8844 207.7924 0001489  88.7744 271.3638 14.82156563683063
Epoch (UTC): 22 January 2020 12:10:42
Eccentricity: 0.0001489
inclination: 97.8844°
perigee height: 621 km
apogee height: 623 km
right ascension of ascending node: 207.7924°
argument of perigee: 88.7744°
revolutions per day: 14.82156563
mean anomaly at epoch: 271.3638°
orbit number at epoch: 68306

The dashed part of the orbit path shows where the satellite is in the earth's shadow,  

DLR